Time,TemperatureF,DewpointF,PressureIn,WindDirection,WindDirectionDegrees,WindSpeedMPH,WindSpeedGustMPH,Humidity,HourlyPrecipIn,Conditions,Clouds,dailyrainin,SoftwareType,DateUTC
2013-06-01 00:00:00,47.7,30.4,30.18,SSW,202,0.0,0.0,51,0.00,,---,0.00,VWS V14.01,2013-06-01 07:00:00,
2013-06-01 00:05:00,47.3,30.6,30.18,SSW,202,0.0,0.0,52,0.00,,---,0.00,VWS V14.01,2013-06-01 07:05:00,
2013-06-01 00:10:00,47.3,30.6,30.18,SSW,202,0.0,0.0,52,0.00,,---,0.00,VWS V14.01,2013-06-01 07:10:00,
2013-06-01 00:15:00,47.1,30.4,30.18,SSW,202,0.0,0.0,52,0.00,,---,0.00,VWS V14.01,2013-06-01 07:15:00,
2013-06-01 00:20:00,47.3,30.6,30.18,SSW,202,0.0,0.0,52,0.00,,---,0.00,VWS V14.01,2013-06-01 07:20:00,
2013-06-01 00:25:00,47.1,30.4,30.18,SW,225,0.0,0.0,52,0.00,,---,0.00,VWS V14.01,2013-06-01 07:25:00,
2013-06-01 00:30:00,46.9,31.2,30.18,SW,225,0.0,0.0,54,0.00,,---,0.00,VWS V14.01,2013-06-01 07:30:00,
2013-06-01 00:35:00,46.8,31.0,30.18,SSW,202,0.0,0.0,54,0.00,,---,0.00,VWS V14.01,2013-06-01 07:35:00,
2013-06-01 00:40:00,46.9,31.2,30.18,SSW,202,0.0,0.0,54,0.00,,---,0.00,VWS V14.01,2013-06-01 07:40:00,
2013-06-01 00:45:00,47.5,33.0,30.18,ESE,112,2.5,2.5,57,0.00,,---,0.00,VWS V14.01,2013-06-01 07:45:00,
2013-06-01 00:51:00,48.4,34.3,30.18,South,180,1.3,1.3,58,0.00,,---,0.00,VWS V14.01,2013-06-01 07:51:00,
2013-06-01 00:56:00,48.7,33.3,30.18,SSW,202,0.0,0.0,55,0.00,,---,0.00,VWS V14.01,2013-06-01 07:56:00,
2013-06-01 01:01:00,48.2,32.3,30.18,WSW,248,0.0,0.0,54,0.00,,---,0.00,VWS V14.01,2013-06-01 08:01:00,
2013-06-01 01:06:00,48.2,32.8,30.18,South,180,0.0,0.0,55,0.00,,---,0.00,VWS V14.01,2013-06-01 08:06:00,
2013-06-01 01:11:00,48.6,33.1,30.18,SSW,202,1.6,1.6,55,0.00,,---,0.00,VWS V14.01,2013-06-01 08:11:00,
2013-06-01 01:16:00,48.9,34.4,30.21,SE,135,3.1,3.1,57,0.00,,---,0.00,VWS V14.01,2013-06-01 08:16:00,
2013-06-01 01:21:00,49.5,34.9,30.21,SSW,202,0.0,0.0,57,0.00,,---,0.00,VWS V14.01,2013-06-01 08:21:00,
2013-06-01 01:26:00,49.8,34.8,30.21,South,180,0.0,0.0,56,0.00,,---,0.00,VWS V14.01,2013-06-01 08:26:00,
2013-06-01 01:31:00,49.8,34.8,30.18,NNE,22,0.0,0.0,56,0.00,,---,0.00,VWS V14.01,2013-06-01 08:31:00,
2013-06-01 01:36:00,49.8,34.3,30.18,SSW,202,0.0,0.0,55,0.00,,---,0.00,VWS V14.01,2013-06-01 08:36:00,
2013-06-01 01:41:00,49.8,34.8,30.18,SW,225,0.0,0.0,56,0.00,,---,0.00,VWS V14.01,2013-06-01 08:41:00,
2013-06-01 01:46:00,49.8,35.2,30.18,SW,225,0.0,0.0,57,0.00,,---,0.00,VWS V14.01,2013-06-01 08:46:00,
2013-06-01 01:51:00,50.0,35.4,30.18,NNW,338,0.0,0.0,57,0.00,,---,0.00,VWS V14.01,2013-06-01 08:51:00,
2013-06-01 01:56:00,49.8,34.8,30.18,East,90,1.3,1.3,56,0.00,,---,0.00,VWS V14.01,2013-06-01 08:56:00,
2013-06-01 02:01:00,49.6,34.6,30.18,NNW,338,0.0,0.0,56,0.00,,---,0.00,VWS V14.01,2013-06-01 09:01:00,
2013-06-01 02:06:00,49.5,34.9,30.18,NNE,22,0.0,0.0,57,0.00,,---,0.00,VWS V14.01,2013-06-01 09:06:00,
2013-06-01 02:12:00,49.1,34.5,30.18,WSW,248,0.0,0.0,57,0.00,,---,0.00,VWS V14.01,2013-06-01 09:12:00,
2013-06-01 02:17:00,48.9,34.4,30.18,WNW,292,0.0,0.0,57,0.00,,---,0.00,VWS V14.01,2013-06-01 09:17:00,
2013-06-01 02:22:00,49.1,35.0,30.18,NNW,338,0.0,0.0,58,0.00,,---,0.00,VWS V14.01,2013-06-01 09:22:00,
2013-06-01 02:27:00,49.1,35.0,30.18,NNW,338,4.0,4.0,58,0.00,,---,0.00,VWS V14.01,2013-06-01 09:27:00,
2013-06-01 02:32:00,49.3,35.6,30.18,SSE,158,0.0,0.0,59,0.00,,---,0.00,VWS V14.01,2013-06-01 09:32:00,
2013-06-01 02:37:00,49.3,35.6,30.18,North,0,0.0,0.0,59,0.00,,---,0.00,VWS V14.01,2013-06-01 09:37:00,
2013-06-01 02:42:00,48.9,34.8,30.18,WNW,292,0.0,0.0,58,0.00,,---,0.00,VWS V14.01,2013-06-01 09:42:00,
2013-06-01 02:47:00,48.6,34.9,30.21,West,270,0.0,0.0,59,0.00,,---,0.00,VWS V14.01,2013-06-01 09:47:00,
2013-06-01 02:52:00,48.2,35.0,30.21,ESE,112,2.0,2.0,60,0.00,,---,0.00,VWS V14.01,2013-06-01 09:52:00,
2013-06-01 02:57:00,48.0,34.8,30.21,ENE,68,1.3,1.3,60,0.00,,---,0.00,VWS V14.01,2013-06-01 09:57:00,
2013-06-01 03:02:00,48.0,35.2,30.21,NW,315,0.0,0.0,61,0.00,,---,0.00,VWS V14.01,2013-06-01 10:02:00,
2013-06-01 03:07:00,47.8,35.1,30.21,North,0,0.0,0.0,61,0.00,,---,0.00,VWS V14.01,2013-06-01 10:07:00,
2013-06-01 03:12:00,47.7,34.9,30.21,NE,45,0.0,0.0,61,0.00,,---,0.00,VWS V14.01,2013-06-01 10:12:00,
2013-06-01 03:17:00,47.5,35.1,30.21,East,90,1.6,1.6,62,0.00,,---,0.00,VWS V14.01,2013-06-01 10:17:00,
2013-06-01 03:22:00,47.3,35.4,30.21,NNW,338,0.0,0.0,63,0.00,,---,0.00,VWS V14.01,2013-06-01 10:22:00,
2013-06-01 03:27:00,47.1,35.6,30.21,North,0,0.0,0.0,64,0.00,,---,0.00,VWS V14.01,2013-06-01 10:27:00,
2013-06-01 03:32:00,47.3,36.2,30.18,SE,135,2.2,2.2,65,0.00,,---,0.00,VWS V14.01,2013-06-01 10:32:00,
2013-06-01 03:38:00,47.1,36.0,30.18,NNE,22,2.2,2.2,65,0.00,,---,0.00,VWS V14.01,2013-06-01 10:38:00,
2013-06-01 03:43:00,46.9,35.8,30.18,South,180,0.0,0.0,65,0.00,,---,0.00,VWS V14.01,2013-06-01 10:43:00,
2013-06-01 03:48:00,46.8,36.0,30.21,East,90,0.0,0.0,66,0.00,,---,0.00,VWS V14.01,2013-06-01 10:48:00,
2013-06-01 03:53:00,46.8,36.0,30.21,East,90,0.0,0.0,66,0.00,,---,0.00,VWS V14.01,2013-06-01 10:53:00,
2013-06-01 03:58:00,46.6,36.2,30.21,ESE,112,0.9,0.9,67,0.00,,---,0.00,VWS V14.01,2013-06-01 10:58:00,
2013-06-01 04:03:00,46.4,35.7,30.18,South,180,2.2,2.2,66,0.00,,---,0.00,VWS V14.01,2013-06-01 11:03:00,
2013-06-01 04:08:00,46.0,35.7,30.18,NW,315,0.0,0.0,67,0.00,,---,0.00,VWS V14.01,2013-06-01 11:08:00,
2013-06-01 07:10:00,52.2,39.1,30.18,ENE,68,3.6,3.6,61,0.00,,---,0.00,VWS V14.01,2013-06-01 14:10:00,
2013-06-01 07:15:00,52.9,39.4,30.18,South,180,0.0,0.0,60,0.00,,---,0.00,VWS V14.01,2013-06-01 14:15:00,
2013-06-01 07:20:00,53.4,39.9,30.18,NE,45,0.0,0.0,60,0.00,,---,0.00,VWS V14.01,2013-06-01 14:20:00,
2013-06-01 07:25:00,54.3,40.3,30.18,NE,45,2.0,2.0,59,0.00,,---,0.00,VWS V14.01,2013-06-01 14:25:00,
2013-06-01 07:30:00,54.7,39.8,30.15,ENE,68,2.5,2.5,57,0.00,,---,0.00,VWS V14.01,2013-06-01 14:30:00,
2013-06-01 07:35:00,54.9,39.5,30.15,SE,135,0.9,0.9,56,0.00,,---,0.00,VWS V14.01,2013-06-01 14:35:00,
2013-06-01 07:41:00,55.4,39.5,30.15,South,180,0.0,0.0,55,0.00,,---,0.00,VWS V14.01,2013-06-01 14:41:00,
2013-06-01 07:46:00,56.3,40.4,30.15,SSE,158,0.0,0.0,55,0.00,,---,0.00,VWS V14.01,2013-06-01 14:46:00,
2013-06-01 07:51:00,56.5,39.6,30.15,NNW,338,2.0,2.0,53,0.00,,---,0.00,VWS V14.01,2013-06-01 14:51:00,
2013-06-01 07:56:00,56.8,39.4,30.15,East,90,6.5,6.5,52,0.00,,---,0.00,VWS V14.01,2013-06-01 14:56:00,
2013-06-01 08:01:00,56.8,39.4,30.15,ESE,112,4.0,4.0,52,0.00,,---,0.00,VWS V14.01,2013-06-01 15:01:00,
2013-06-01 08:06:00,56.7,38.8,30.15,SW,225,3.6,3.6,51,0.00,,---,0.00,VWS V14.01,2013-06-01 15:06:00,
2013-06-01 08:11:00,56.8,38.9,30.15,NNE,22,3.4,3.4,51,0.00,,---,0.00,VWS V14.01,2013-06-01 15:11:00,
2013-06-01 08:16:00,57.2,39.2,30.12,NNW,338,5.6,5.6,51,0.00,,---,0.00,VWS V14.01,2013-06-01 15:16:00,
2013-06-01 08:21:00,56.8,38.9,30.12,ESE,112,4.3,4.3,51,0.00,,---,0.00,VWS V14.01,2013-06-01 15:21:00,
2013-06-01 08:26:00,57.2,39.2,30.12,South,180,1.1,1.1,51,0.00,,---,0.00,VWS V14.01,2013-06-01 15:26:00,
2013-06-01 08:31:00,57.2,38.8,30.15,NNE,22,2.7,2.7,50,0.00,,---,0.00,VWS V14.01,2013-06-01 15:31:00,
2013-06-01 08:36:00,58.5,40.4,30.15,SE,135,2.9,2.9,51,0.00,,---,0.00,VWS V14.01,2013-06-01 15:36:00,
2013-06-01 08:41:00,59.4,40.2,30.15,ENE,68,3.1,3.1,49,0.00,,---,0.00,VWS V14.01,2013-06-01 15:41:00,
2013-06-01 08:46:00,60.8,40.5,30.15,SE,135,2.5,2.5,47,0.00,,---,0.00,VWS V14.01,2013-06-01 15:46:00,
2013-06-01 08:52:00,63.3,42.2,30.15,SSE,158,0.0,0.0,46,0.00,,---,0.00,VWS V14.01,2013-06-01 15:52:00,
2013-06-01 08:57:00,64.9,43.1,30.15,SW,225,2.7,2.7,45,0.00,,---,0.00,VWS V14.01,2013-06-01 15:57:00,
2013-06-01 09:02:00,66.0,41.7,30.12,WNW,292,2.0,2.0,41,0.00,,---,0.00,VWS V14.01,2013-06-01 16:02:00,
2013-06-01 09:07:00,67.6,42.5,30.12,SE,135,0.0,0.0,40,0.00,,---,0.00,VWS V14.01,2013-06-01 16:07:00,
2013-06-01 09:12:00,65.8,39.5,30.12,SE,135,2.5,2.5,38,0.00,,---,0.00,VWS V14.01,2013-06-01 16:12:00,
2013-06-01 09:17:00,65.5,39.9,30.12,SW,225,1.6,1.6,39,0.00,,---,0.00,VWS V14.01,2013-06-01 16:17:00,
2013-06-01 09:22:00,65.7,39.4,30.12,NE,45,2.5,2.5,38,0.00,,---,0.00,VWS V14.01,2013-06-01 16:22:00,
2013-06-01 09:27:00,65.8,39.5,30.12,East,90,1.6,1.6,38,0.00,,---,0.00,VWS V14.01,2013-06-01 16:27:00,
2013-06-01 09:32:00,65.5,39.2,30.12,SE,135,0.9,0.9,38,0.00,,---,0.00,VWS V14.01,2013-06-01 16:32:00,
2013-06-01 09:37:00,66.0,39.7,30.12,NNE,22,1.6,1.6,38,0.00,,---,0.00,VWS V14.01,2013-06-01 16:37:00,
2013-06-01 09:42:00,65.7,38.7,30.12,SE,135,3.6,3.6,37,0.00,,---,0.00,VWS V14.01,2013-06-01 16:42:00,
2013-06-01 09:47:00,64.9,38.8,30.12,East,90,2.9,2.9,38,0.00,,---,0.00,VWS V14.01,2013-06-01 16:47:00,
2013-06-01 09:52:00,65.5,39.2,30.12,SE,135,2.9,2.9,38,0.00,,---,0.00,VWS V14.01,2013-06-01 16:52:00,
2013-06-01 09:57:00,66.4,40.0,30.12,SSE,158,1.1,1.1,38,0.00,,---,0.00,VWS V14.01,2013-06-01 16:57:00,
2013-06-01 10:02:00,66.4,40.0,30.12,SSW,202,3.6,3.6,38,0.00,,---,0.00,VWS V14.01,2013-06-01 17:02:00,
2013-06-01 10:07:00,66.2,38.5,30.12,NE,45,1.6,1.6,36,0.00,,---,0.00,VWS V14.01,2013-06-01 17:07:00,
2013-06-01 10:12:00,66.0,38.3,30.12,SSW,202,1.1,1.1,36,0.00,,---,0.00,VWS V14.01,2013-06-01 17:12:00,
2013-06-01 10:17:00,66.4,38.6,30.12,NNW,338,0.0,0.0,36,0.00,,---,0.00,VWS V14.01,2013-06-01 17:17:00,
2013-06-01 10:22:00,67.1,38.6,30.12,SSW,202,0.0,0.0,35,0.00,,---,0.00,VWS V14.01,2013-06-01 17:22:00,
2013-06-01 10:27:00,69.4,40.6,30.12,ENE,68,4.0,4.0,35,0.00,,---,0.00,VWS V14.01,2013-06-01 17:27:00,
2013-06-01 10:33:00,69.6,40.0,30.12,NNE,22,4.0,4.0,34,0.00,,---,0.00,VWS V14.01,2013-06-01 17:33:00,
2013-06-01 10:38:00,71.1,41.3,30.12,NNW,338,1.1,1.1,34,0.00,,---,0.00,VWS V14.01,2013-06-01 17:38:00,
2013-06-01 10:43:00,72.3,40.8,30.12,North,0,2.5,2.5,32,0.00,,---,0.00,VWS V14.01,2013-06-01 17:43:00,
2013-06-01 10:48:00,72.9,41.3,30.12,NNE,22,2.5,2.5,32,0.00,,---,0.00,VWS V14.01,2013-06-01 17:48:00,
2013-06-01 10:53:00,73.2,41.6,30.12,North,0,2.2,2.2,32,0.00,,---,0.00,VWS V14.01,2013-06-01 17:53:00,
2013-06-01 10:58:00,74.5,41.9,30.12,West,270,0.0,0.0,31,0.00,,---,0.00,VWS V14.01,2013-06-01 17:58:00,
2013-06-01 11:03:00,74.7,42.0,30.12,North,0,4.0,4.0,31,0.00,,---,0.00,VWS V14.01,2013-06-01 18:03:00,
2013-06-01 11:08:00,75.0,41.5,30.12,WSW,248,0.0,0.0,30,0.00,,---,0.00,VWS V14.01,2013-06-01 18:08:00,
2013-06-01 11:13:00,76.8,43.1,30.12,North,0,2.0,2.0,30,0.00,,---,0.00,VWS V14.01,2013-06-01 18:13:00,
2013-06-01 11:18:00,74.8,39.6,30.09,NE,45,2.5,2.5,28,0.00,,---,0.00,VWS V14.01,2013-06-01 18:18:00,
2013-06-01 11:23:00,75.0,39.7,30.09,North,0,5.4,5.4,28,0.00,,---,0.00,VWS V14.01,2013-06-01 18:23:00,
2013-06-01 11:28:00,74.7,39.4,30.09,North,0,2.2,2.2,28,0.00,,---,0.00,VWS V14.01,2013-06-01 18:28:00,
2013-06-01 11:33:00,75.2,39.0,30.09,WNW,292,0.0,0.0,27,0.00,,---,0.00,VWS V14.01,2013-06-01 18:33:00,
2013-06-01 11:38:00,75.7,37.5,30.09,NW,315,0.0,0.0,25,0.00,,---,0.00,VWS V14.01,2013-06-01 18:38:00,
2013-06-01 11:44:00,76.5,40.0,30.09,North,0,0.0,0.0,27,0.00,,---,0.00,VWS V14.01,2013-06-01 18:44:00,
2013-06-01 11:49:00,77.7,40.1,30.09,North,0,0.0,0.0,26,0.00,,---,0.00,VWS V14.01,2013-06-01 18:49:00,
2013-06-01 11:54:00,77.7,39.1,30.09,NW,315,1.3,1.3,25,0.00,,---,0.00,VWS V14.01,2013-06-01 18:54:00,
2013-06-01 11:59:00,76.8,38.4,30.09,NE,45,0.0,0.0,25,0.00,,---,0.00,VWS V14.01,2013-06-01 18:59:00,
2013-06-01 12:04:00,76.5,38.1,30.06,WNW,292,0.0,0.0,25,0.00,,---,0.00,VWS V14.01,2013-06-01 19:04:00,
2013-06-01 12:09:00,76.1,36.7,30.06,North,0,1.3,1.3,24,0.00,,---,0.00,VWS V14.01,2013-06-01 19:09:00,
2013-06-01 12:14:00,74.8,35.7,30.06,North,0,4.9,4.9,24,0.00,,---,0.00,VWS V14.01,2013-06-01 19:14:00,
2013-06-01 12:19:00,75.7,36.4,30.06,WSW,248,0.0,0.0,24,0.00,,---,0.00,VWS V14.01,2013-06-01 19:19:00,
2013-06-01 12:24:00,75.9,36.6,30.06,North,0,3.6,3.6,24,0.00,,---,0.00,VWS V14.01,2013-06-01 19:24:00,
2013-06-01 12:29:00,76.5,36.0,30.06,North,0,5.6,5.6,23,0.00,,---,0.00,VWS V14.01,2013-06-01 19:29:00,
2013-06-01 12:34:00,75.7,36.4,30.06,NW,315,0.0,0.0,24,0.00,,---,0.00,VWS V14.01,2013-06-01 19:34:00,
2013-06-01 12:39:00,75.4,36.1,30.06,NW,315,0.0,0.0,24,0.00,,---,0.00,VWS V14.01,2013-06-01 19:39:00,
2013-06-01 12:44:00,75.0,35.8,30.06,West,270,0.0,0.0,24,0.00,,---,0.00,VWS V14.01,2013-06-01 19:44:00,
2013-06-01 12:50:00,75.7,36.4,30.06,ESE,112,0.0,0.0,24,0.00,,---,0.00,VWS V14.01,2013-06-01 19:50:00,
2013-06-01 12:55:00,76.1,36.7,30.06,NNE,22,3.1,3.1,24,0.00,,---,0.00,VWS V14.01,2013-06-01 19:55:00,
2013-06-01 13:00:00,75.7,35.3,30.06,South,180,3.8,3.8,23,0.00,,---,0.00,VWS V14.01,2013-06-01 20:00:00,
2013-06-01 13:05:00,75.6,35.2,30.06,SW,225,2.7,2.7,23,0.00,,---,0.00,VWS V14.01,2013-06-01 20:05:00,
2013-06-01 13:10:00,76.3,35.8,30.06,WSW,248,0.0,0.0,23,0.00,,---,0.00,VWS V14.01,2013-06-01 20:10:00,
2013-06-01 13:15:00,75.7,34.2,30.06,WSW,248,4.0,4.0,22,0.00,,---,0.00,VWS V14.01,2013-06-01 20:15:00,
2013-06-01 13:20:00,75.7,35.3,30.06,WSW,248,2.0,2.0,23,0.00,,---,0.00,VWS V14.01,2013-06-01 20:20:00,
2013-06-01 13:25:00,77.5,36.8,30.06,WSW,248,0.0,0.0,23,0.00,,---,0.00,VWS V14.01,2013-06-01 20:25:00,
2013-06-01 13:30:00,75.7,34.2,30.06,WSW,248,0.0,0.0,22,0.00,,---,0.00,VWS V14.01,2013-06-01 20:30:00,
2013-06-01 13:35:00,77.0,36.4,30.06,SW,225,0.0,0.0,23,0.00,,---,0.00,VWS V14.01,2013-06-01 20:35:00,
2013-06-01 13:40:00,76.8,36.2,30.06,SW,225,0.0,0.0,23,0.00,,---,0.00,VWS V14.01,2013-06-01 20:40:00,
2013-06-01 13:45:00,75.4,35.0,30.03,SE,135,4.0,4.0,23,0.00,,---,0.00,VWS V14.01,2013-06-01 20:45:00,
2013-06-01 13:50:00,75.0,34.7,30.03,NW,315,0.0,0.0,23,0.00,,---,0.00,VWS V14.01,2013-06-01 20:50:00,
2013-06-01 13:55:00,74.1,34.0,30.03,South,180,4.9,4.9,23,0.00,,---,0.00,VWS V14.01,2013-06-01 20:55:00,
2013-06-01 14:01:00,74.1,35.1,30.03,NNE,22,0.0,0.0,24,0.00,,---,0.00,VWS V14.01,2013-06-01 21:01:00,
2013-06-01 14:06:00,74.8,35.7,30.03,North,0,0.0,0.0,24,0.00,,---,0.00,VWS V14.01,2013-06-01 21:06:00,
2013-06-01 14:11:00,75.7,36.4,30.03,West,270,0.0,0.0,24,0.00,,---,0.00,VWS V14.01,2013-06-01 21:11:00,
2013-06-01 14:16:00,75.9,35.5,30.03,North,0,4.3,4.3,23,0.00,,---,0.00,VWS V14.01,2013-06-01 21:16:00,
2013-06-01 14:21:00,74.8,34.6,30.03,NNE,22,0.0,0.0,23,0.00,,---,0.00,VWS V14.01,2013-06-01 21:21:00,
2013-06-01 14:26:00,75.0,34.7,30.03,WSW,248,2.9,2.9,23,0.00,,---,0.00,VWS V14.01,2013-06-01 21:26:00,
2013-06-01 14:31:00,79.0,38.1,30.03,SW,225,0.0,0.0,23,0.00,,---,0.00,VWS V14.01,2013-06-01 21:31:00,
2013-06-01 14:36:00,80.4,38.1,30.03,West,270,2.9,2.9,22,0.00,,---,0.00,VWS V14.01,2013-06-01 21:36:00,
2013-06-01 14:41:00,80.4,37.0,30.03,WNW,292,0.0,0.0,21,0.00,,---,0.00,VWS V14.01,2013-06-01 21:41:00,
2013-06-01 14:46:00,80.8,37.2,30.00,West,270,2.5,2.5,21,0.00,,---,0.00,VWS V14.01,2013-06-01 21:46:00,
2013-06-01 14:51:00,79.7,36.3,30.00,West,270,0.0,0.0,21,0.00,,---,0.00,VWS V14.01,2013-06-01 21:51:00,
2013-06-01 14:56:00,79.9,36.5,30.00,West,270,4.0,4.0,21,0.00,,---,0.00,VWS V14.01,2013-06-01 21:56:00,
2013-06-01 15:01:00,80.8,36.0,29.97,SW,225,1.3,1.3,20,0.00,,---,0.00,VWS V14.01,2013-06-01 22:01:00,
2013-06-01 15:06:00,81.1,36.3,29.97,NW,315,2.5,2.5,20,0.00,,---,0.00,VWS V14.01,2013-06-01 22:06:00,
2013-06-01 15:12:00,78.8,35.6,29.97,WSW,248,1.6,1.6,21,0.00,,---,0.00,VWS V14.01,2013-06-01 22:12:00,
2013-06-01 15:17:00,79.3,36.0,30.00,WSW,248,2.5,2.5,21,0.00,,---,0.00,VWS V14.01,2013-06-01 22:17:00,
2013-06-01 15:22:00,80.6,35.9,30.00,WSW,248,10.5,10.5,20,0.00,,---,0.00,VWS V14.01,2013-06-01 22:22:00,
2013-06-01 15:27:00,78.8,35.6,30.00,WSW,248,2.7,2.7,21,0.00,,---,0.00,VWS V14.01,2013-06-01 22:27:00,
2013-06-01 15:32:00,78.6,35.5,30.00,WSW,248,2.7,2.7,21,0.00,,---,0.00,VWS V14.01,2013-06-01 22:32:00,
2013-06-01 15:37:00,79.5,36.2,30.00,WSW,248,3.6,3.6,21,0.00,,---,0.00,VWS V14.01,2013-06-01 22:37:00,
2013-06-01 15:42:00,79.3,34.8,30.00,NW,315,0.0,0.0,20,0.00,,---,0.00,VWS V14.01,2013-06-01 22:42:00,
2013-06-01 15:47:00,79.7,35.1,30.00,West,270,0.0,0.0,20,0.00,,---,0.00,VWS V14.01,2013-06-01 22:47:00,
2013-06-01 15:52:00,79.3,34.8,30.00,WSW,248,4.3,4.3,20,0.00,,---,0.00,VWS V14.01,2013-06-01 22:52:00,
2013-06-01 15:57:00,78.8,34.4,30.00,WSW,248,0.0,0.0,20,0.00,,---,0.00,VWS V14.01,2013-06-01 22:57:00,
2013-06-01 16:02:00,79.7,35.1,30.00,SW,225,0.0,0.0,20,0.00,,---,0.00,VWS V14.01,2013-06-01 23:02:00,
2013-06-01 16:07:00,79.0,34.5,30.00,WSW,248,7.2,7.2,20,0.00,,---,0.00,VWS V14.01,2013-06-01 23:07:00,
2013-06-01 16:12:00,78.4,35.3,30.00,WSW,248,1.6,1.6,21,0.00,,---,0.00,VWS V14.01,2013-06-01 23:12:00,
2013-06-01 16:17:00,78.4,34.1,30.00,SW,225,0.0,0.0,20,0.00,,---,0.00,VWS V14.01,2013-06-01 23:17:00,
2013-06-01 16:23:00,77.4,33.2,30.00,SSW,202,5.6,5.6,20,0.00,,---,0.00,VWS V14.01,2013-06-01 23:23:00,
2013-06-01 16:28:00,76.8,34.0,30.00,NNW,338,5.4,5.4,21,0.00,,---,0.00,VWS V14.01,2013-06-01 23:28:00,
2013-06-01 16:33:00,77.4,33.2,30.00,WSW,248,1.6,1.6,20,0.00,,---,0.00,VWS V14.01,2013-06-01 23:33:00,
2013-06-01 16:38:00,77.7,33.5,30.00,NNW,338,0.0,0.0,20,0.00,,---,0.00,VWS V14.01,2013-06-01 23:38:00,
2013-06-01 16:43:00,77.7,33.5,30.00,ESE,112,1.3,1.3,20,0.00,,---,0.00,VWS V14.01,2013-06-01 23:43:00,
2013-06-01 16:48:00,77.4,33.2,30.00,NNE,22,0.0,0.0,20,0.00,,---,0.00,VWS V14.01,2013-06-01 23:48:00,
2013-06-01 16:53:00,77.4,33.2,30.00,WSW,248,3.8,3.8,20,0.00,,---,0.00,VWS V14.01,2013-06-01 23:53:00,
2013-06-01 16:58:00,76.3,32.3,30.00,WSW,248,1.1,1.1,20,0.00,,---,0.00,VWS V14.01,2013-06-01 23:58:00,
2013-06-01 17:03:00,77.2,34.3,29.97,NW,315,0.0,0.0,21,0.00,,---,0.00,VWS V14.01,2013-06-02 00:03:00,
2013-06-01 17:08:00,75.6,32.9,29.97,WSW,248,6.3,6.3,21,0.00,,---,0.00,VWS V14.01,2013-06-02 00:08:00,
2013-06-01 17:13:00,74.7,32.2,29.97,SW,225,3.6,3.6,21,0.00,,---,0.00,VWS V14.01,2013-06-02 00:13:00,
2013-06-01 17:18:00,73.6,31.3,29.97,SW,225,2.9,2.9,21,0.00,,---,0.00,VWS V14.01,2013-06-02 00:18:00,
2013-06-01 17:23:00,73.2,32.1,29.97,WSW,248,2.9,2.9,22,0.00,,---,0.00,VWS V14.01,2013-06-02 00:23:00,
2013-06-01 17:28:00,72.9,31.8,29.97,South,180,1.1,1.1,22,0.00,,---,0.00,VWS V14.01,2013-06-02 00:28:00,
2013-06-01 17:33:00,72.3,31.4,29.97,SW,225,2.2,2.2,22,0.00,,---,0.00,VWS V14.01,2013-06-02 00:33:00,
2013-06-01 17:38:00,72.5,31.5,29.97,South,180,2.0,2.0,22,0.00,,---,0.00,VWS V14.01,2013-06-02 00:38:00,
2013-06-01 17:44:00,72.3,31.4,29.97,WSW,248,0.0,0.0,22,0.00,,---,0.00,VWS V14.01,2013-06-02 00:44:00,
2013-06-01 17:49:00,72.3,31.4,29.97,SW,225,1.3,1.3,22,0.00,,---,0.00,VWS V14.01,2013-06-02 00:49:00,
2013-06-01 17:54:00,72.7,31.7,29.97,SW,225,0.0,0.0,22,0.00,,---,0.00,VWS V14.01,2013-06-02 00:54:00,
2013-06-01 17:59:00,72.1,31.2,29.97,SW,225,2.5,2.5,22,0.00,,---,0.00,VWS V14.01,2013-06-02 00:59:00,
2013-06-01 18:04:00,71.6,30.8,29.97,SW,225,2.5,2.5,22,0.00,,---,0.00,VWS V14.01,2013-06-02 01:04:00,
2013-06-01 18:09:00,71.4,31.7,29.97,SSW,202,0.9,0.9,23,0.00,,---,0.00,VWS V14.01,2013-06-02 01:09:00,
2013-06-01 18:14:00,70.9,31.3,29.97,South,180,3.4,3.4,23,0.00,,---,0.00,VWS V14.01,2013-06-02 01:14:00,
2013-06-01 18:19:00,70.7,31.1,29.94,WSW,248,3.1,3.1,23,0.00,,---,0.00,VWS V14.01,2013-06-02 01:19:00,
2013-06-01 18:24:00,70.3,30.8,29.94,SW,225,2.2,2.2,23,0.00,,---,0.00,VWS V14.01,2013-06-02 01:24:00,
2013-06-01 18:29:00,70.2,30.7,29.94,WSW,248,2.5,2.5,23,0.00,,---,0.00,VWS V14.01,2013-06-02 01:29:00,
2013-06-01 18:34:00,70.2,30.7,29.94,South,180,0.0,0.0,23,0.00,,---,0.00,VWS V14.01,2013-06-02 01:34:00,
2013-06-01 18:39:00,70.0,30.5,29.94,SSW,202,0.0,0.0,23,0.00,,---,0.00,VWS V14.01,2013-06-02 01:39:00,
2013-06-01 18:44:00,69.8,30.4,29.94,WSW,248,0.0,0.0,23,0.00,,---,0.00,VWS V14.01,2013-06-02 01:44:00,
2013-06-01 18:49:00,69.8,31.4,29.94,SSW,202,1.6,1.6,24,0.00,,---,0.00,VWS V14.01,2013-06-02 01:49:00,
2013-06-01 18:54:00,69.3,31.0,29.94,SW,225,0.0,0.0,24,0.00,,---,0.00,VWS V14.01,2013-06-02 01:54:00,
2013-06-01 19:00:00,68.9,30.6,29.94,SW,225,4.0,4.0,24,0.00,,---,0.00,VWS V14.01,2013-06-02 02:00:00,
2013-06-01 19:05:00,68.5,31.4,29.94,West,270,0.0,0.0,25,0.00,,---,0.00,VWS V14.01,2013-06-02 02:05:00,
2013-06-01 19:10:00,68.5,31.4,29.94,SSW,202,1.1,1.1,25,0.00,,---,0.00,VWS V14.01,2013-06-02 02:10:00,
2013-06-01 19:15:00,68.7,31.5,29.94,SSW,202,0.0,0.0,25,0.00,,---,0.00,VWS V14.01,2013-06-02 02:15:00,
2013-06-01 19:20:00,68.5,32.3,29.94,SW,225,2.5,2.5,26,0.00,,---,0.00,VWS V14.01,2013-06-02 02:20:00,
2013-06-01 19:25:00,68.2,32.0,29.94,SW,225,0.9,0.9,26,0.00,,---,0.00,VWS V14.01,2013-06-02 02:25:00,
2013-06-01 19:30:00,68.0,31.9,29.94,SSW,202,3.6,3.6,26,0.00,,---,0.00,VWS V14.01,2013-06-02 02:30:00,
2013-06-01 19:35:00,67.6,32.5,29.94,SW,225,3.4,3.4,27,0.00,,---,0.00,VWS V14.01,2013-06-02 02:35:00,
2013-06-01 19:40:00,67.3,33.1,29.94,SW,225,2.7,2.7,28,0.00,,---,0.00,VWS V14.01,2013-06-02 02:40:00,
2013-06-01 19:45:00,67.1,33.8,29.94,WSW,248,3.1,3.1,29,0.00,,---,0.00,VWS V14.01,2013-06-02 02:45:00,
2013-06-01 19:50:00,66.9,33.7,29.94,SW,225,2.2,2.2,29,0.00,,---,0.00,VWS V14.01,2013-06-02 02:50:00,
2013-06-01 19:55:00,66.6,34.2,29.94,SW,225,0.0,0.0,30,0.00,,---,0.00,VWS V14.01,2013-06-02 02:55:00,
2013-06-01 20:00:00,66.4,34.0,29.94,SW,225,0.9,0.9,30,0.00,,---,0.00,VWS V14.01,2013-06-02 03:00:00,
2013-06-01 20:05:00,66.0,34.5,29.94,SW,225,0.0,0.0,31,0.00,,---,0.00,VWS V14.01,2013-06-02 03:05:00,
2013-06-01 20:10:00,65.8,34.4,29.94,WSW,248,2.2,2.2,31,0.00,,---,0.00,VWS V14.01,2013-06-02 03:10:00,
2013-06-01 20:16:00,65.5,34.9,29.94,South,180,0.9,0.9,32,0.00,,---,0.00,VWS V14.01,2013-06-02 03:16:00,
2013-06-01 20:21:00,65.5,34.9,29.94,SW,225,2.7,2.7,32,0.00,,---,0.00,VWS V14.01,2013-06-02 03:21:00,
2013-06-01 20:26:00,65.1,34.6,29.94,WSW,248,2.0,2.0,32,0.00,,---,0.00,VWS V14.01,2013-06-02 03:26:00,
2013-06-01 20:31:00,65.1,35.3,29.94,SW,225,0.0,0.0,33,0.00,,---,0.00,VWS V14.01,2013-06-02 03:31:00,
2013-06-01 20:36:00,65.1,35.3,29.94,SW,225,0.0,0.0,33,0.00,,---,0.00,VWS V14.01,2013-06-02 03:36:00,
2013-06-01 20:41:00,64.6,34.8,29.94,SSW,202,0.0,0.0,33,0.00,,---,0.00,VWS V14.01,2013-06-02 03:41:00,
2013-06-01 20:46:00,64.4,34.7,29.94,WSW,248,0.0,0.0,33,0.00,,---,0.00,VWS V14.01,2013-06-02 03:46:00,
2013-06-01 20:51:00,64.0,34.4,29.94,SSW,202,0.0,0.0,33,0.00,,---,0.00,VWS V14.01,2013-06-02 03:51:00,
2013-06-01 20:56:00,63.9,34.2,29.94,SW,225,2.2,2.2,33,0.00,,---,0.00,VWS V14.01,2013-06-02 03:56:00,
2013-06-01 21:01:00,63.3,33.8,29.94,SSW,202,0.0,0.0,33,0.00,,---,0.00,VWS V14.01,2013-06-02 04:01:00,
2013-06-01 21:02:00,63.3,33.8,29.94,SSW,202,0.0,0.0,33,0.00,,---,0.00,VWS V14.01,2013-06-02 04:02:00,
2013-06-01 21:07:00,62.8,34.0,29.94,South,180,0.0,0.0,34,0.00,,---,0.00,VWS V14.01,2013-06-02 04:07:00,
2013-06-01 21:12:00,62.2,33.5,29.94,NE,45,0.0,0.0,34,0.00,,---,0.00,VWS V14.01,2013-06-02 04:12:00,
2013-06-01 21:17:00,61.9,33.2,29.94,West,270,0.0,0.0,34,0.00,,---,0.00,VWS V14.01,2013-06-02 04:17:00,
2013-06-01 21:22:00,61.7,33.8,29.94,WNW,292,0.0,0.0,35,0.00,,---,0.00,VWS V14.01,2013-06-02 04:22:00,
2013-06-01 21:27:00,61.3,33.5,29.94,WSW,248,0.0,0.0,35,0.00,,---,0.00,VWS V14.01,2013-06-02 04:27:00,
2013-06-01 21:32:00,60.8,33.7,29.94,SE,135,0.0,0.0,36,0.00,,---,0.00,VWS V14.01,2013-06-02 04:32:00,
2013-06-01 21:37:00,60.4,33.4,29.94,WSW,248,4.0,4.0,36,0.00,,---,0.00,VWS V14.01,2013-06-02 04:37:00,
2013-06-01 21:42:00,60.4,34.1,29.94,SW,225,0.0,0.0,37,0.00,,---,0.00,VWS V14.01,2013-06-02 04:42:00,
2013-06-01 21:48:00,60.4,34.1,29.94,SSW,202,0.0,0.0,37,0.00,,---,0.00,VWS V14.01,2013-06-02 04:48:00,
2013-06-01 21:53:00,60.1,33.8,29.94,WNW,292,0.0,0.0,37,0.00,,---,0.00,VWS V14.01,2013-06-02 04:53:00,
2013-06-01 21:58:00,59.7,33.4,29.94,SSW,202,0.0,0.0,37,0.00,,---,0.00,VWS V14.01,2013-06-02 04:58:00,
2013-06-01 22:03:00,59.5,33.9,29.91,South,180,0.0,0.0,38,0.00,,---,0.00,VWS V14.01,2013-06-02 05:03:00,
2013-06-01 22:08:00,59.0,33.5,29.91,North,0,0.0,0.0,38,0.00,,---,0.00,VWS V14.01,2013-06-02 05:08:00,
2013-06-01 22:13:00,58.5,34.2,29.91,SE,135,0.0,0.0,40,0.00,,---,0.00,VWS V14.01,2013-06-02 05:13:00,
2013-06-01 22:18:00,58.1,33.9,29.94,NNW,338,0.0,0.0,40,0.00,,---,0.00,VWS V14.01,2013-06-02 05:18:00,
2013-06-01 22:23:00,58.1,34.5,29.94,SW,225,0.0,0.0,41,0.00,,---,0.00,VWS V14.01,2013-06-02 05:23:00,
2013-06-01 22:28:00,57.7,34.8,29.94,SW,225,0.0,0.0,42,0.00,,---,0.00,VWS V14.01,2013-06-02 05:28:00,
2013-06-01 22:33:00,57.2,34.9,29.94,SE,135,1.1,1.1,43,0.00,,---,0.00,VWS V14.01,2013-06-02 05:33:00,
2013-06-01 22:38:00,57.0,35.9,29.94,SSW,202,0.0,0.0,45,0.00,,---,0.00,VWS V14.01,2013-06-02 05:38:00,
2013-06-01 22:43:00,56.7,35.0,29.94,SSW,202,2.0,2.0,44,0.00,,---,0.00,VWS V14.01,2013-06-02 05:43:00,
2013-06-01 22:48:00,56.7,35.0,29.94,SW,225,0.0,0.0,44,0.00,,---,0.00,VWS V14.01,2013-06-02 05:48:00,
2013-06-01 22:53:00,56.5,35.4,29.94,SW,225,0.0,0.0,45,0.00,,---,0.00,VWS V14.01,2013-06-02 05:53:00,
2013-06-01 22:58:00,56.3,35.2,29.94,SW,225,0.0,0.0,45,0.00,,---,0.00,VWS V14.01,2013-06-02 05:58:00,
2013-06-01 23:04:00,55.6,35.2,29.94,SSW,202,0.0,0.0,46,0.00,,---,0.00,VWS V14.01,2013-06-02 06:04:00,
2013-06-01 23:09:00,55.4,35.5,29.94,SW,225,0.0,0.0,47,0.00,,---,0.00,VWS V14.01,2013-06-02 06:09:00,
2013-06-01 23:14:00,55.2,35.4,29.94,SW,225,0.0,0.0,47,0.00,,---,0.00,VWS V14.01,2013-06-02 06:14:00,
2013-06-01 23:19:00,55.2,35.4,29.94,SW,225,0.0,0.0,47,0.00,,---,0.00,VWS V14.01,2013-06-02 06:19:00,
2013-06-01 23:24:00,54.9,35.6,29.94,SW,225,0.0,0.0,48,0.00,,---,0.00,VWS V14.01,2013-06-02 06:24:00,
2013-06-01 23:29:00,54.9,36.1,29.94,SW,225,0.0,0.0,49,0.00,,---,0.00,VWS V14.01,2013-06-02 06:29:00,
2013-06-01 23:34:00,54.5,35.2,29.94,South,180,0.0,0.0,48,0.00,,---,0.00,VWS V14.01,2013-06-02 06:34:00,
2013-06-01 23:39:00,54.5,36.3,29.94,SW,225,0.0,0.0,50,0.00,,---,0.00,VWS V14.01,2013-06-02 06:39:00,
2013-06-01 23:44:00,54.3,35.6,29.94,SW,225,0.0,0.0,49,0.00,,---,0.00,VWS V14.01,2013-06-02 06:44:00,
2013-06-01 23:49:00,53.8,35.6,29.94,SW,225,0.0,0.0,50,0.00,,---,0.00,VWS V14.01,2013-06-02 06:49:00,
2013-06-01 23:54:00,53.4,35.8,29.94,South,180,0.0,0.0,51,0.00,,---,0.00,VWS V14.01,2013-06-02 06:54:00,
2013-06-01 23:59:00,53.2,35.1,29.94,WSW,248,0.0,0.0,50,0.00,,---,0.00,VWS V14.01,2013-06-02 06:59:00,